Temperature
10 11 11 11 12 12 12 12 13 13 13 13 13 13 14 14 14 14 14 14 14 14 14 14 14 14 14 14 15 15 15 15 15 15 15 15 14 14 14 14 14 14 15
10 11 11 11 11 12 12 12 12 13 13 13 13 13 13 13 13 14 14 14 14 14 14 14 14 14 14 14 14 15 15 15 14 14 14 14 14 14 14 14 14 14 14
10 10 11 11 11 11 12 12 12 12 13 13 13 13 13 13 13 13 13 13 14 14 14 14 14 14 14 14 14 14 14 14 14 14 14 14 14 14 14 14 14 14 14
10 10 10 11 11 11 11 12 12 12 12 12 12 13 13 13 13 13 13 13 13 13 13 14 14 14 14 14 14 14 14 14 14 14 13 13 13 14 14 14 14 14 14
9 10 10 10 11 11 11 11 11 12 12 12 12 12 12 12 12 12 12 13 13 13 13 13 13 13 14 14 14 14 14 14 14 13 13 13 13 14 14 14 14 14 14
9 9 10 10 11 11 11 11 11 11 12 12 12 12 12 12 12 12 12 12 13 13 13 13 13 13 13 13 13 14 14 14 13 13 13 13 13 13 13 14 14 14 14
9 9 9 10 10 11 11 11 11 11 11 11 11 11 11 12 12 12 12 12 12 13 13 13 13 13 13 13 13 13 13 13 13 13 13 13 13 13 13 13 13 13 13
9 9 9 9 10 10 10 10 11 11 11 11 11 11 11 11 11 11 12 12 12 12 13 13 13 13 13 13 13 13 13 13 12 12 12 12 13 13 13 13 13 13 13
8 9 9 9 9 10 10 10 10 10 10 11 11 11 11 11 11 11 11 12 12 12 12 12 12 12 12 12 12 12 12 12 12 12 12 12 12 12 13 13 13 13 13
8 8 9 9 9 9 9 10 10 10 10 10 10 10 10 10 11 11 11 11 11 12 12 12 12 12 12 12 12 12 12 12 12 12 12 12 12 12 12 12 12 12 12
8 8 8 9 9 9 9 9 9 9 10 10 10 10 10 10 10 10 10 11 11 11 11 11 11 11 11 11 12 12 12 11 11 11 11 12 12 12 12 12 12 12 12
7 8 8 8 8 8 9 9 9 9 9 9 9 9 9 9 9 9 10 10 10 10 11 11 11 11 11 11 11 11 11 11 11 11 11 11 11 11 11 11 11 11 12
7 7 8 8 8 8 8 8 8 8 9 9 9 9 9 9 9 9 9 9 9 10 10 10 10 10 10 10 10 10 10 10 11 11 11 11 11 11 11 11 11 11 11
6 7 7 7 7 7 8 8 8 8 8 8 8 8 8 8 8 8 8 8 9 9 9 9 9 10 10 10 10 10 10 10 10 10 10 11 11 10 10 10 11 11 11
6 6 6 7 7 7 7 7 7 8 8 8 8 8 8 8 8 8 8 8 8 8 8 9 9 9 9 9 9 9 9 10 10 10 10 10 10 10 10 10 10 10 11
5 5 6 6 6 6 6 7 7 7 7 7 7 7 7 7 7 8 8 7 8 8 8 8 8 8 8 8 9 9 9 9 9 9 9 9 10 10 10 10 10 10 10
5 5 5 5 5 6 6 6 6 6 7 7 7 7 7 7 7 7 7 7 7 7 7 7 7 7 8 8 8 8 8 9 9 9 9 9 9 9 9 9 9 9 10
4 4 5 5 5 5 5 5 6 6 6 6 6 6 6 6 6 6 6 7 7 7 7 7 7 7 7 7 7 7 8 8 8 8 8 8 8 8 9 9 9 9 9
4 4 4 4 5 5 5 5 5 5 5 6 6 6 6 6 6 6 6 6 6 6 6 6 6 6 6 6 6 7 7 7 7 8 8 8 8 8 8 8 8 8 9
3 3 4 4 4 4 4 4 4 5 5 5 5 5 5 5 5 5 5 5 5 5 5 6 6 5 5 6 6 6 6 6 7 7 7 7 7 8 8 8 8 8 8
3 3 3 3 3 3 4 4 4 4 4 4 5 5 5 5 5 5 5 5 5 5 5 5 5 5 5 5 5 5 5 5 6 6 6 6 7 7 7 7 7 7 7
2 2 2 3 3 3 3 3 3 3 3 4 4 4 4 4 4 4 4 4 4 4 4 4 4 4 4 4 4 3 4 4 5 5 5 6 6 6 6 6 6 7 7
2 2 2 2 2 2 2 2 2 3 3 3 3 3 3 3 3 3 4 4 4 4 3 3 3 3 3 3 3 3 3 4 4 4 5 5 5 5 5 6 6 6 6
1 1 1 1 2 2 2 2 2 2 2 2 2 2 3 3 3 3 3 3 3 3 3 3 3 2 3 2 2 3 3 2 2 3 4 4 4 5 5 5 5 5 5
1 1 1 1 1 1 1 1 1 1 2 2 2 2 2 2 2 2 2 2 2 2 2 2 2 2 2 2 2 2 2 2 2 1 2 3 3 4 4 4 4 4 5
1 0 0 0 0 0 0 0 1 1 1 1 1 1 1 1 1 2 2 2 2 2 1 2 1 1 1 1 1 1 1 1 1 1 1 1 2 3 3 3 4 4 4
Wind_Speed
1 4 5 4 5 7 8 9 9 10 10 10 11 11 11 11 11 11 11 11 12 12 12 12 12 12 13 13 13 13 13 13 14 14 14 14 14 14 13 12 11 12 14
2 2 3 4 5 6 7 8 9 9 10 10 10 11 11 11 11 11 12 12 12 12 12 12 12 12 12 12 13 13 13 13 13 13 12 13 13 13 12 11 11 12 13
2 2 3 5 6 6 7 8 9 9 9 9 10 10 10 11 11 11 12 12 11 12 12 13 12 12 12 12 12 12 12 12 12 10 8 10 11 11 11 12 12 13 13
3 3 4 6 7 7 7 8 8 9 9 9 9 10 10 10 11 11 12 12 12 11 12 12 12 12 11 11 11 11 11 10 9 6 7 9 10 11 11 11 12 12 12
4 3 5 7 7 7 8 9 9 9 9 9 9 9 9 9 10 11 12 12 12 12 11 11 11 11 10 10 11 10 10 9 6 6 8 8 8 10 10 11 11 11 11
4 5 6 7 8 7 8 9 9 9 10 10 9 9 9 9 10 11 11 12 12 11 11 11 10 10 10 10 10 10 9 7 5 6 7 7 8 9 10 10 10 10 10
4 5 7 7 8 8 8 9 9 9 10 10 10 9 9 9 10 10 11 11 11 11 10 9 9 10 10 9 9 9 8 6 5 6 6 7 8 8 9 10 9 9 10
4 5 6 8 8 9 9 9 9 10 10 9 9 9 9 9 9 10 10 10 10 10 9 9 9 9 9 10 9 8 7 5 5 6 6 7 8 7 8 8 9 9 9
5 5 6 6 7 8 9 9 9 9 10 10 10 9 9 9 9 9 9 9 9 9 9 8 8 8 9 8 8 7 6 5 4 5 5 6 7 6 7 7 8 8 8
5 5 5 5 6 5 6 8 9 9 9 9 9 9 9 9 9 9 9 8 8 8 8 8 8 8 8 8 8 7 5 3 4 4 4 6 6 6 6 7 7 8 8
4 4 4 4 5 4 5 6 7 7 7 7 7 8 7 6 6 6 8 8 7 7 7 8 8 7 6 6 7 6 4 3 3 4 4 6 6 5 6 6 7 7 7
2 2 3 3 4 4 3 4 4 4 5 4 4 5 4 5 5 5 6 7 7 6 6 6 6 6 4 4 4 3 3 3 3 3 5 6 5 5 5 6 6 6 6
2 1 2 2 3 4 3 3 3 3 3 3 4 4 4 4 4 4 4 4 4 4 3 4 4 4 4 3 3 2 2 2 2 3 4 6 4 4 4 5 5 4 4
3 2 1 2 2 3 2 2 2 3 2 3 3 3 3 3 3 3 3 3 3 3 3 2 2 3 3 3 3 3 3 2 2 2 3 5 4 3 3 3 4 3 3
4 3 1 1 1 1 1 2 2 2 2 2 2 3 3 2 2 3 3 3 3 3 3 2 2 2 2 2 2 2 2 2 2 1 2 3 3 2 2 2 2 2 2
4 3 2 1 1 1 1 1 1 1 1 1 2 2 2 2 2 2 2 2 3 3 3 2 2 2 1 1 2 2 2 1 1 1 0 1 2 2 1 1 1 1 1
6 4 3 2 1 1 1 0 1 1 1 1 1 1 1 1 1 1 1 2 2 2 2 2 2 1 1 1 1 2 2 2 1 1 1 0 1 0 1 1 0 0 1
6 5 4 3 2 2 2 1 1 1 1 1 1 1 1 1 1 1 1 1 2 2 1 2 1 1 1 1 2 2 1 1 2 1 1 1 1 1 1 1 1 0 0
7 6 5 4 3 2 2 2 2 2 2 1 1 1 1 1 1 0 0 1 1 1 1 1 1 1 1 2 2 2 2 2 2 2 1 1 1 1 2 1 1 1 1
7 6 6 5 4 3 2 2 2 2 2 2 1 2 2 2 1 1 0 0 1 1 1 1 1 1 1 1 2 2 2 2 2 2 2 2 2 2 2 2 2 3 2
7 7 7 6 5 3 3 3 3 4 3 3 2 2 3 3 2 2 1 1 1 1 1 1 1 1 1 1 1 2 2 3 3 2 2 2 2 2 2 2 2 2 3
9 8 8 7 6 6 4 4 4 4 4 3 3 3 4 4 3 2 3 2 2 2 2 1 1 1 1 1 1 2 2 2 2 3 3 2 3 2 2 3 3 3 3
10 10 8 8 7 6 5 3 2 3 3 3 4 4 4 5 5 4 4 3 3 3 3 2 2 2 2 2 2 2 2 2 2 2 3 3 3 3 3 3 4 4 3
10 9 9 8 8 7 6 6 6 6 6 6 5 4 5 5 5 5 5 5 4 3 3 3 3 3 3 3 3 3 3 2 2 2 2 3 4 4 4 3 4 4 4
9 8 8 8 7 7 7 7 8 7 6 5 5 6 5 5 6 6 5 5 5 4 4 4 4 4 4 4 3 3 4 3 4 4 4 4 4 4 4 4 4 4 4
7 7 7 7 7 7 7 8 8 9 8 7 7 6 6 5 5 7 6 6 6 5 5 5 5 6 5 5 5 4 4 4 4 4 5 5 5 4 5 4 4 3 4
Wind_Direction
33 345 346 13 40 49 54 59 59 60 60 59 60 66 64 63 62 62 63 71 74 75 79 82 81 81 82 83 82 79 77 75 75 75 76 77 80 81 82 83 89 91 91
340 344 13 38 58 61 62 68 66 65 64 61 60 62 64 62 60 62 64 70 72 74 74 76 77 78 78 81 83 80 78 76 75 76 79 82 82 81 79 73 70 87 92
15 24 50 52 66 69 71 74 71 69 67 65 63 61 62 64 62 64 66 68 71 73 72 72 75 76 76 80 84 82 80 78 77 80 87 87 86 82 83 81 82 88 90
29 43 58 61 67 72 75 77 74 71 70 68 65 62 59 62 64 65 67 65 69 73 73 74 72 74 78 80 83 84 81 78 76 81 85 82 84 82 84 85 86 88 91
47 52 67 70 71 74 76 79 77 74 71 70 67 64 60 62 66 66 67 66 67 69 71 73 73 72 78 81 83 84 83 80 79 82 81 79 80 79 81 84 84 86 89
64 57 69 77 75 75 76 77 79 77 72 68 66 66 62 63 67 68 67 65 66 68 70 71 71 70 74 81 82 82 81 78 92 86 82 78 79 79 81 83 85 86 88
68 61 66 72 77 74 75 74 74 75 74 69 65 65 65 65 67 67 67 65 65 64 68 69 73 70 72 79 83 81 78 70 82 88 83 75 70 76 81 85 84 87 90
79 63 70 65 73 75 71 72 71 72 73 70 65 64 65 66 67 67 67 66 64 64 64 71 73 71 71 71 76 82 78 71 82 83 83 78 67 75 83 88 87 84 89
78 71 66 68 71 79 74 70 72 71 71 69 64 61 62 64 69 66 65 66 65 64 61 64 71 72 70 70 66 73 75 61 74 79 83 75 66 76 84 87 91 87 86
72 68 66 67 62 78 84 73 72 71 68 69 66 61 61 64 70 68 63 61 63 61 60 57 69 73 70 70 65 63 74 81 73 81 77 69 65 74 81 84 92 92 89
70 62 62 65 57 63 88 83 78 74 69 69 67 63 65 62 61 66 60 57 59 59 58 57 59 66 73 74 68 62 73 78 81 76 70 63 66 69 76 79 84 89 90
99 74 61 64 61 55 74 85 82 72 68 68 68 68 63 59 54 51 62 57 56 57 61 58 58 63 63 69 71 74 64 68 80 73 62 60 64 70 74 75 78 81 83
160 113 77 65 61 54 58 69 71 67 64 61 63 63 61 62 58 50 51 46 45 48 53 58 64 52 38 39 43 48 59 62 69 74 65 57 58 64 73 76 77 81 84
182 172 124 72 68 60 55 74 75 71 65 61 56 58 60 53 52 47 42 31 29 24 25 36 40 41 34 34 33 37 46 55 58 69 65 55 55 63 74 80 82 85 86
201 199 198 135 92 78 61 75 76 80 76 84 80 60 56 56 52 51 40 34 27 19 16 16 23 31 32 31 27 22 22 31 41 64 84 68 55 60 72 82 80 82 92
214 211 215 220 203 146 85 80 101 94 102 99 90 77 63 64 57 51 39 30 23 13 2 357 9 12 24 18 13 7 2 2 359 19 42 109 75 45 44 73 93 81 66
219 219 223 223 221 206 200 186 153 140 141 106 107 131 88 65 74 62 39 26 10 359 0 360 6 0 9 6 344 346 354 341 324 321 336 288 197 42 17 14 4 35 64
217 218 223 227 229 233 222 217 204 186 174 167 167 169 140 75 88 83 52 10 351 357 360 360 354 333 325 320 311 317 323 316 303 278 292 310 278 276 281 338 316 316 26
217 218 220 224 227 232 232 229 222 202 194 210 204 191 191 172 196 164 32 355 326 354 360 346 344 293 291 308 305 300 290 282 288 272 256 294 292 288 281 253 269 290 285
219 220 223 224 227 228 231 233 231 213 212 209 218 213 208 206 213 213 221 324 320 337 342 316 283 287 267 292 289 291 285 274 266 273 262 261 293 285 277 280 256 252 250
219 219 222 225 223 216 221 230 235 225 218 218 226 225 216 215 221 232 227 214 243 224 258 282 264 253 285 293 269 284 273 263 264 266 264 261 275 276 285 289 288 274 258
220 220 222 223 222 221 225 232 246 229 220 219 215 228 223 219 221 233 222 210 216 219 224 234 244 236 244 232 239 261 266 248 236 256 257 259 264 265 283 285 287 275 273
222 222 223 224 224 224 224 227 240 226 219 223 221 224 228 224 221 225 226 215 212 216 218 223 227 231 232 232 222 233 249 253 304 259 251 246 258 264 270 278 275 271 260
224 223 224 225 224 222 218 219 223 231 226 229 223 222 226 225 221 221 225 219 212 215 218 221 222 230 227 232 235 243 257 259 255 278 269 261 256 258 260 264 266 267 256
225 225 226 225 224 222 222 225 229 237 236 227 220 221 223 227 225 221 224 223 213 214 217 218 220 226 227 230 233 241 242 240 242 253 270 288 286 268 266 259 255 260 261
226 223 223 224 226 225 225 228 230 233 233 225 222 223 225 226 228 224 221 225 219 216 218 220 221 224 228 230 233 235 238 235 234 246 260 274 285 285 281 263 252 250 254
Height
1537 1538 1539 1539 1540 1540 1540 1540 1541 1540 1540 1540 1540 1539 1539 1539 1539 1539 1539 1539 1539 1538 1538 1538 1538 1538 1538 1537 1537 1537 1537 1538 1538 1538 1538 1538 1538 1539 1539 1539 1539 1539 1539
1537 1538 1538 1539 1540 1540 1540 1541 1541 1541 1541 1541 1540 1540 1540 1540 1539 1539 1539 1539 1539 1539 1539 1539 1539 1539 1539 1538 1538 1538 1538 1539 1539 1539 1539 1540 1540 1540 1540 1541 1541 1541 1541
1536 1537 1538 1539 1540 1540 1540 1541 1541 1541 1541 1541 1541 1541 1540 1540 1540 1540 1540 1540 1540 1539 1539 1539 1539 1539 1539 1539 1539 1539 1540 1540 1540 1540 1541 1542 1542 1542 1542 1542 1542 1542 1543
1536 1537 1538 1539 1539 1540 1540 1540 1541 1541 1541 1541 1541 1540 1540 1540 1540 1540 1540 1540 1540 1540 1540 1539 1539 1540 1540 1540 1540 1540 1540 1541 1541 1542 1543 1543 1543 1543 1543 1543 1543 1544 1544
1536 1537 1538 1538 1539 1540 1540 1540 1540 1540 1540 1540 1540 1540 1540 1540 1540 1540 1540 1540 1540 1540 1540 1540 1540 1540 1540 1540 1541 1541 1541 1542 1542 1543 1543 1544 1544 1544 1544 1544 1544 1545 1545
1535 1537 1537 1538 1539 1539 1539 1539 1540 1540 1540 1540 1540 1540 1540 1540 1540 1540 1540 1540 1540 1540 1540 1540 1540 1540 1540 1541 1541 1541 1542 1542 1543 1544 1544 1544 1544 1545 1545 1545 1545 1546 1546
1535 1536 1537 1538 1538 1539 1539 1539 1539 1539 1539 1539 1539 1539 1539 1540 1540 1540 1540 1540 1540 1540 1540 1540 1540 1540 1541 1541 1541 1542 1542 1543 1543 1544 1544 1544 1545 1545 1545 1546 1546 1546 1547
1535 1535 1536 1537 1538 1538 1538 1538 1538 1538 1538 1538 1539 1539 1539 1539 1539 1539 1539 1539 1539 1539 1539 1540 1540 1540 1541 1541 1541 1542 1542 1543 1543 1544 1544 1545 1545 1545 1546 1546 1547 1547 1547
1534 1535 1535 1536 1537 1537 1538 1538 1538 1538 1538 1538 1538 1538 1538 1538 1538 1538 1539 1539 1539 1539 1539 1539 1540 1540 1541 1541 1541 1542 1542 1542 1544 1544 1544 1545 1545 1545 1546 1546 1547 1547 1548
1533 1534 1534 1535 1536 1536 1537 1537 1537 1537 1537 1537 1537 1537 1537 1538 1538 1538 1538 1538 1538 1538 1538 1538 1539 1539 1540 1541 1541 1542 1542 1542 1543 1544 1544 1544 1545 1545 1546 1546 1547 1547 1548
1531 1532 1533 1534 1534 1535 1536 1536 1536 1537 1537 1537 1537 1537 1537 1537 1537 1537 1537 1537 1537 1538 1538 1538 1538 1539 1540 1540 1541 1541 1542 1542 1543 1543 1543 1544 1544 1545 1545 1546 1546 1547 1547
1530 1531 1531 1532 1533 1534 1534 1535 1535 1536 1536 1536 1536 1536 1536 1536 1536 1536 1536 1537 1537 1537 1537 1537 1538 1538 1539 1539 1540 1540 1541 1541 1542 1542 1542 1543 1543 1544 1544 1545 1545 1546 1546
1528 1529 1530 1531 1531 1532 1533 1534 1534 1534 1535 1535 1535 1535 1535 1535 1535 1535 1535 1535 1536 1536 1536 1536 1537 1537 1538 1538 1538 1539 1540 1540 1541 1541 1541 1542 1542 1543 1543 1544 1544 1545 1545
1526 1526 1528 1529 1529 1530 1531 1532 1532 1533 1533 1533 1533 1534 1534 1534 1534 1534 1534 1534 1534 1534 1534 1535 1535 1535 1536 1537 1537 1538 1538 1539 1539 1539 1540 1540 1541 1541 1542 1542 1543 1543 1544
1524 1524 1525 1526 1527 1528 1529 1530 1530 1531 1531 1532 1532 1532 1532 1532 1532 1532 1533 1532 1532 1533 1533 1533 1533 1534 1534 1535 1535 1536 1536 1537 1538 1538 1538 1538 1539 1539 1540 1541 1541 1542 1542
1521 1522 1523 1524 1525 1526 1526 1527 1528 1529 1529 1530 1530 1530 1530 1531 1531 1531 1531 1531 1531 1531 1531 1531 1532 1532 1532 1533 1533 1534 1534 1535 1536 1536 1536 1536 1537 1537 1538 1539 1539 1540 1540
1518 1519 1520 1521 1522 1523 1524 1524 1525 1526 1527 1527 1528 1528 1528 1529 1529 1529 1529 1529 1529 1530 1530 1530 1530 1530 1531 1531 1531 1532 1532 1533 1533 1534 1534 1534 1535 1535 1536 1536 1537 1537 1538
1514 1515 1517 1518 1519 1520 1521 1522 1522 1523 1524 1524 1525 1525 1526 1526 1527 1527 1527 1527 1528 1528 1528 1528 1528 1528 1528 1529 1529 1529 1530 1530 1530 1531 1532 1532 1532 1533 1533 1534 1534 1535 1536
1510 1511 1513 1514 1515 1517 1517 1518 1519 1520 1520 1521 1522 1522 1523 1524 1524 1524 1525 1525 1525 1525 1525 1526 1526 1526 1526 1526 1526 1527 1527 1527 1528 1528 1529 1529 1530 1530 1531 1531 1532 1532 1533
1506 1507 1509 1510 1511 1513 1513 1514 1515 1516 1517 1517 1518 1519 1519 1520 1521 1522 1522 1522 1522 1522 1523 1523 1523 1524 1524 1524 1524 1524 1524 1524 1524 1525 1525 1526 1527 1527 1528 1528 1529 1529 1530
1501 1503 1504 1505 1507 1508 1509 1510 1510 1511 1512 1513 1514 1515 1515 1516 1517 1518 1518 1519 1519 1520 1520 1520 1521 1521 1521 1521 1522 1521 1521 1521 1521 1521 1522 1522 1523 1524 1525 1525 1526 1526 1527
1496 1498 1499 1500 1502 1503 1504 1506 1506 1507 1507 1508 1509 1510 1511 1512 1513 1514 1514 1515 1515 1516 1517 1517 1517 1518 1518 1519 1519 1519 1520 1521 1519 1518 1518 1519 1520 1520 1521 1522 1522 1523 1523
1491 1492 1494 1495 1497 1498 1500 1501 1502 1502 1503 1504 1504 1506 1507 1508 1509 1509 1510 1510 1511 1512 1512 1513 1514 1515 1515 1516 1516 1518 1518 1517 1516 1515 1515 1515 1516 1516 1517 1518 1519 1520 1520
1487 1488 1490 1491 1492 1493 1494 1495 1496 1497 1497 1498 1499 1500 1501 1502 1503 1505 1505 1506 1506 1507 1508 1509 1510 1510 1511 1512 1513 1513 1515 1514 1514 1512 1512 1512 1512 1513 1513 1514 1515 1515 1516
1483 1484 1485 1486 1487 1488 1489 1490 1491 1492 1493 1494 1494 1495 1496 1497 1498 1499 1500 1501 1502 1502 1503 1504 1505 1506 1507 1507 1508 1509 1510 1510 1510 1510 1509 1508 1509 1509 1509 1510 1510 1511 1511
1478 1479 1480 1481 1482 1483 1484 1485 1486 1486 1487 1488 1489 1490 1491 1492 1492 1494 1495 1496 1497 1497 1498 1499 1500 1501 1502 1503 1504 1505 1505 1506 1506 1506 1506 1505 1504 1504 1505 1505 1505 1506 1507